Dewpoint
57 57 57 57 57 57 57 57 57 57 58 58 58 60 60 60 58 53 39 44 47 56 52 34 32 34 36 37 37 33 27 23 22 21 21 22 22 23 24 24 27 32 31 41 46
57 57 57 57 57 57 57 57 57 57 57 58 58 59 60 60 51 40 51 56 55 55 37 29 26 30 27 34 33 29 28 23 19 18 19 21 20 22 21 22 23 29 35 44 51
57 56 56 56 56 56 56 57 57 57 57 58 59 59 59 57 43 38 55 55 56 50 35 30 25 26 27 30 29 28 27 19 17 24 20 22 21 21 20 21 21 23 31 44 51
56 56 55 55 55 55 56 56 57 57 57 57 59 59 59 51 31 41 55 55 56 42 34 29 25 28 28 25 25 23 22 20 30 30 26 24 22 20 21 21 24 25 30 43 50
56 56 55 54 55 55 56 56 56 57 57 57 58 59 52 38 37 40 54 51 39 38 31 27 23 24 24 19 23 21 18 18 26 28 26 26 24 23 22 22 24 25 29 36 46
57 56 56 55 55 55 56 56 56 57 57 57 58 59 44 28 45 39 39 40 35 34 30 29 25 24 24 20 23 24 21 20 24 25 25 26 22 24 22 24 22 25 26 28 35
57 56 56 55 55 55 55 56 56 57 57 57 58 50 35 32 43 40 36 39 39 35 33 33 29 31 27 27 28 27 23 20 20 23 25 27 23 20 21 23 23 22 25 26 27
57 56 56 56 55 55 56 57 57 58 57 57 58 47 31 43 42 37 36 37 37 36 36 38 34 35 34 30 26 22 21 18 21 24 27 28 16 18 21 18 20 22 21 24 26
57 56 56 56 56 56 57 58 57 57 56 56 48 41 30 47 40 39 36 35 36 35 35 29 38 33 33 25 21 22 13 14 22 25 26 26 24 24 25 23 22 22 21 21 24
57 57 56 56 56 57 57 58 55 55 52 45 36 33 31 31 43 40 36 37 36 36 34 35 31 29 26 20 15 16 17 14 15 24 26 25 25 25 23 23 24 24 23 23 24
57 57 57 57 57 57 56 50 40 42 39 30 28 25 29 40 44 40 37 33 34 33 26 31 23 20 19 19 17 18 18 15 15 25 24 23 22 19 18 17 18 19 20 22 22
56 57 58 58 57 57 56 47 47 47 40 32 34 34 34 39 36 38 37 30 32 28 29 28 23 22 21 26 23 22 19 17 16 25 24 22 20 19 18 18 18 20 20 20 21
53 54 56 58 58 56 52 48 49 48 43 42 38 31 34 38 30 36 35 33 30 28 28 26 24 24 25 25 24 20 18 16 16 23 24 23 22 22 23 21 19 21 21 21 20
53 52 52 57 55 54 52 51 51 50 38 38 39 38 35 33 29 39 36 32 29 24 27 26 26 23 25 22 23 19 21 19 21 20 16 25 16 15 12 11 19 23 24 23 23
49 52 52 55 55 52 52 53 52 51 31 37 37 41 38 28 33 36 36 33 27 24 23 23 25 25 25 23 22 22 27 23 24 22 25 22 20 16 13 11 11 14 18 21 23
47 48 51 54 55 55 55 53 50 38 30 34 36 35 32 33 34 35 34 35 33 27 28 28 30 28 26 29 27 28 26 26 25 22 17 14 17 10 11 12 11 13 18 23 28
45 47 49 48 51 56 56 51 37 32 35 32 34 35 33 30 31 32 31 29 24 23 24 26 26 29 30 27 29 27 22 17 20 21 19 16 13 10 13 12 15 15 18 21 37
46 44 48 46 51 54 53 42 30 36 32 35 34 34 32 31 30 29 30 27 27 22 19 17 17 28 29 26 26 27 22 21 14 18 17 21 16 17 18 19 19 21 23 25 32
46 44 47 49 49 54 47 32 35 35 34 33 32 30 30 31 30 28 28 27 27 25 19 17 18 26 28 26 24 26 24 23 21 19 20 19 17 16 21 17 19 20 21 21 25
42 42 43 49 50 51 42 34 36 37 36 35 31 31 28 29 28 28 27 28 28 29 25 24 21 26 29 28 27 25 25 22 23 15 14 16 16 14 16 15 18 22 27 30 31
43 34 44 49 50 45 35 35 36 37 37 35 33 35 35 29 28 28 27 28 28 29 30 27 27 27 27 26 23 25 23 24 22 22 19 14 13 15 22 26 28 29 29 31 32
41 30 45 47 39 37 34 34 35 33 37 35 36 35 34 35 33 32 28 29 29 31 28 31 29 25 24 24 27 25 21 22 21 19 21 20 17 22 23 26 26 27 30 31 31
36 33 45 47 30 31 33 32 32 30 31 34 34 35 34 35 35 36 36 39 36 36 35 34 30 23 26 26 28 25 24 25 23 23 22 20 18 19 25 24 27 25 28 30 31
37 28 38 40 36 30 28 28 27 33 32 31 31 33 33 31 32 30 33 39 40 35 38 39 36 29 24 27 31 30 31 27 26 26 23 22 21 22 23 23 23 24 28 29 29
37 29 31 29 28 32 32 26 24 25 31 31 30 31 30 30 29 30 34 37 38 38 35 36 33 34 33 34 33 33 35 35 36 32 24 24 23 24 24 25 27 27 27 27 27
34 33 33 30 29 27 30 26 25 23 28 27 27 28 29 28 28 29 32 34 31 35 32 37 31 32 27 31 30 29 31 32 32 33 34 32 28 28 28 29 28 28 28 31 32
39 39 36 29 28 28 27 27 25 25 26 25 26 27 26 29 31 34 36 36 36 34 33 34 33 31 23 29 28 27 29 29 30 30 31 29 30 31 31 31 31 31 32 32 34
Lifted_Index
5 5 5 5 5 5 5 6 6 6 6 6 6 6 5 5 6 6 7 9 10 10 10 10 10 9 8 8 7 7 5 5 5 6 6 6 6 6 7 7 7 7 7 5 4
5 5 5 5 5 5 5 6 6 6 6 6 6 6 6 6 6 7 8 9 10 11 10 10 10 9 8 8 7 7 6 5 6 6 6 6 6 6 6 6 7 7 7 5 3
5 6 6 6 5 5 6 6 6 7 7 6 6 6 6 6 6 7 8 10 10 11 10 10 10 9 8 7 7 6 6 6 6 6 6 6 6 6 6 6 7 7 7 5 3
5 6 6 6 6 6 6 6 6 7 7 7 6 6 6 6 6 8 9 10 10 10 10 10 9 8 7 7 7 7 6 6 6 7 6 6 6 6 6 6 7 7 7 6 4
5 5 6 7 7 6 6 6 6 7 7 7 6 6 6 6 7 9 9 10 10 10 10 10 9 8 8 7 7 7 7 7 7 7 6 6 6 5 5 6 7 7 7 7 6
4 5 6 6 7 6 6 6 6 6 7 7 6 6 7 7 8 9 10 10 10 10 10 9 9 9 8 8 7 7 7 6 6 6 6 6 5 5 5 6 7 7 7 7 7
4 4 5 6 6 6 6 6 6 6 7 7 6 7 8 8 8 8 9 10 10 10 9 10 9 9 8 8 8 7 6 6 6 6 6 5 5 5 5 6 6 6 7 8 8
3 3 4 5 6 6 6 6 6 6 7 7 7 7 8 9 8 8 8 9 9 9 9 9 9 8 8 7 7 6 5 5 5 6 6 5 4 4 6 6 6 6 6 7 8
2 2 3 3 4 4 5 5 6 6 7 7 8 8 9 9 8 8 8 8 9 9 9 9 9 8 7 7 6 5 4 4 5 6 6 5 4 5 6 6 5 5 6 6 7
1 1 1 2 2 3 3 5 6 7 7 8 8 9 9 9 8 8 8 8 9 9 9 9 8 7 7 6 5 4 4 5 5 6 6 5 4 5 6 5 5 5 5 6 6
2 1 1 1 1 1 2 4 5 6 7 8 9 9 9 9 8 8 8 8 8 8 8 8 7 6 6 6 5 5 5 5 6 6 6 5 5 5 5 5 5 5 5 5 5
3 2 2 1 1 1 1 2 4 5 5 7 8 9 9 8 8 8 8 8 8 8 8 7 7 6 6 6 6 6 5 5 6 6 6 5 5 5 5 5 4 4 4 4 4
3 3 2 2 1 1 1 2 3 3 3 4 6 7 8 8 8 8 8 8 8 7 7 7 7 7 7 6 6 6 5 5 5 6 6 5 4 4 4 4 4 4 4 4 4
3 3 3 2 2 2 1 2 3 2 2 3 4 6 7 8 8 8 8 8 8 7 7 7 7 7 7 6 6 6 6 6 5 5 5 5 4 3 4 4 4 4 4 4 4
4 3 3 2 2 1 1 2 2 2 1 2 3 4 5 6 7 7 7 8 7 7 7 7 7 7 7 7 7 7 6 6 6 5 5 4 3 3 3 3 4 4 4 4 4
5 4 3 2 2 2 1 1 1 1 1 2 2 3 4 5 6 6 7 7 7 7 7 7 7 7 7 7 7 7 6 5 5 4 4 4 4 4 4 4 5 5 5 5 5
6 5 4 3 2 2 2 1 1 1 2 2 2 2 2 3 4 5 5 6 6 6 6 6 6 7 7 7 7 6 5 4 3 2 3 4 4 4 5 6 6 6 6 5 5
8 7 6 4 2 2 2 1 1 1 2 2 3 2 2 2 3 3 4 4 4 5 5 5 5 6 6 6 6 6 5 3 2 2 3 4 4 5 7 7 7 6 6 6 6
9 8 7 5 3 2 2 2 2 2 2 2 3 2 2 2 2 2 2 3 3 3 3 3 4 5 6 6 5 5 5 4 3 2 3 3 4 5 7 7 7 7 7 7 6
9 8 7 6 4 3 3 3 3 3 3 3 2 2 2 2 2 2 2 3 3 3 3 3 3 5 5 6 5 5 5 5 4 2 2 2 4 5 7 7 7 7 7 7 7
8 8 7 5 4 4 4 4 4 3 3 3 3 2 2 2 2 2 3 3 3 3 3 3 3 4 5 5 5 5 5 4 4 3 2 2 3 5 7 7 7 7 7 6 6
7 7 6 5 5 5 5 5 4 4 4 3 3 2 2 2 2 2 3 3 3 3 3 3 3 3 3 4 5 5 5 4 4 3 3 3 4 6 7 6 6 6 6 6 6
6 6 5 5 5 6 5 5 4 4 4 4 3 2 2 2 2 2 2 2 3 2 2 2 2 2 2 3 4 4 4 4 3 3 3 3 4 5 6 6 6 6 6 6 5
6 5 5 5 5 5 5 5 5 4 4 4 3 3 2 2 2 2 2 2 2 2 2 2 2 2 2 2 3 3 3 3 3 2 3 3 4 5 5 5 5 5 5 5 5
6 6 5 5 5 5 4 4 4 4 4 4 3 3 2 2 2 1 1 1 1 1 2 2 2 2 2 2 2 2 2 2 2 2 2 2 3 4 5 5 5 5 5 5 5
7 6 6 5 5 5 4 4 4 4 4 4 3 3 2 2 2 1 1 1 2 2 2 2 2 2 2 2 2 2 2 3 2 2 1 2 3 4 4 4 4 4 4 4 4
7 7 6 6 5 5 4 4 4 4 4 3 3 3 2 2 2 2 2 2 2 2 2 2 2 2 2 2 2 2 3 3 2 2 1 1 2 3 4 4 4 4 4 4 5